EW9733 Weather Reports


time (UTC)temp
C
wind
direction
speed
KPH
gust
KPH
rain 1hr
cm
rain 24hr
cm
rain mn
cm
humidity
%
barometer
mb
20260508181520 16 355 6.4 19.3 0.00 0.00 0.00 37 1007.3
20260508180022 16 275 4.8 19.3 0.00 0.00 0.00 37 1007.1
20260508174520 16 350 3.2 22.5 0.00 0.00 0.00 39 1007.1
20260508173019 16 328 1.6 17.7 0.00 0.00 0.00 41 1007.2
20260508171518 15 340 4.8 20.9 0.00 0.00 0.00 38 1007.4
20260508170019 16 168 4.8 19.3 0.00 0.00 0.00 38 1007.3
20260508164516 15 222 3.2 16.1 0.00 0.00 0.00 40 1007.5
20260508163027 16 323 4.8 17.7 0.00 0.00 0.00 42 1007.5
20260508161513 16 9 1.6 12.9 0.00 0.00 0.00 40 1007.7
20260508160020 16 332 3.2 16.1 0.00 0.00 0.00 41 1007.9
20260508154516 15 281 4.8 16.1 0.00 0.00 0.00 37 1008.1
20260508153011 15 355 4.8 17.7 0.00 0.00 0.00 37 1008.1
20260508151512 15 296 1.6 6.4 0.00 0.00 0.00 38 1008.1
20260508150025 15 234 3.2 12.9 0.00 0.00 0.00 40 1008.1
20260508144506 15 15 0.0 16.1 0.00 0.00 0.00 41 1008.3
20260508143134 15 323 6.4 24.1 0.00 0.00 0.00 39 1008.3
20260508141602 14 79 1.6 12.9 0.00 0.00 0.00 40 1008.5
20260508140105 14 267 4.8 14.5 0.00 0.00 0.00 41 1008.6
20260508134549 14 38 1.6 14.5 0.00 0.00 0.00 44 1008.8
20260508133047 13 257 3.2 12.9 0.00 0.00 0.00 39 1008.9
20260508131541 13 302 1.6 8.0 0.00 0.00 0.00 46 1008.8
20260508130036 12 285 1.6 12.9 0.00 0.00 0.00 44 1008.9
20260508124533 12 269 0.0 9.7 0.00 0.00 0.00 46 1009.0
20260508123027 12 36 0.0 4.8 0.00 0.00 0.00 50 1008.9
20260508121523 11 40 0.0 8.0 0.00 0.00 0.00 52 1009.1
20260508120016 10 51 1.6 8.0 0.00 0.00 0.00 56 1009.2
20260508114511 9 254 1.6 11.3 0.00 0.18 0.00 59 1009.2
20260508113008 7 313 0.0 3.2 0.00 0.18 0.00 69 1009.2
20260508111504 6 287 0.0 1.6 0.00 0.18 0.00 82 1009.0
20260508110109 5 300 0.0 0.0 0.00 0.18 0.00 85 1008.9
20260508104605 4 300 0.0 0.0 0.00 0.25 0.00 85 1008.7
20260508103054 4 300 0.0 0.0 0.00 0.25 0.00 84 1008.6
20260508101553 3 300 0.0 0.0 0.00 0.25 0.00 83 1008.5
20260508100048 3 300 0.0 0.0 0.00 0.25 0.00 82 1008.4
20260508094547 3 300 0.0 0.0 0.00 0.28 0.00 81 1008.2
20260508093041 3 300 0.0 0.0 0.00 0.28 0.00 80 1008.1
20260508091539 3 300 0.0 0.0 0.00 0.28 0.00 78 1008.1
20260508090040 3 300 0.0 0.0 0.00 0.28 0.00 78 1008.1
20260508084535 4 300 0.0 0.0 0.00 0.53 0.00 77 1008.0
20260508083036 4 300 0.0 0.0 0.00 0.53 0.00 75 1007.7
20260508081529 5 300 0.0 0.0 0.00 0.53 0.00 74 1007.5
20260508080049 5 300 0.0 0.0 0.00 0.53 0.00 72 1007.2
20260508074525 5 300 0.0 0.0 0.00 0.76 0.00 71 1006.9
20260508073023 6 300 0.0 0.0 0.00 0.76 0.00 70 1006.6
20260508071518 6 300 0.0 0.0 0.00 0.76 0.00 68 1006.5
20260508070021 7 300 0.0 0.0 0.00 0.76 0.00 67 1006.5
20260508064528 7 300 0.0 0.0 0.00 0.76 0.00 64 1006.4
20260508063008 7 300 0.0 0.0 0.00 0.76 0.00 62 1006.5
20260508061504 8 300 0.0 0.0 0.00 0.76 0.00 58 1006.4
20260508060002 8 300 0.0 1.6 0.00 0.76 0.00 57 1006.4
20260508054601 9 276 0.0 1.6 0.00 0.76 0.00 54 1006.4
20260508053101 10 263 0.0 1.6 0.00 0.76 0.00 53 1006.5
20260508051608 10 259 0.0 8.0 0.00 0.76 0.00 51 1006.5
20260508050104 10 284 0.0 6.4 0.00 0.76 0.00 50 1006.5
20260508044555 10 273 0.0 4.8 0.00 0.76 0.00 51 1006.6
20260508043050 10 255 0.0 6.4 0.00 0.76 0.00 52 1006.5
20260508041552 10 329 0.0 3.2 0.00 0.76 0.00 52 1006.6
20260508040054 10 296 0.0 3.2 0.00 0.76 0.00 54 1006.5
20260508034548 10 296 0.0 11.3 0.00 0.76 0.76 53 1006.6
20260508033047 10 272 0.0 9.7 0.00 0.76 0.76 53 1006.5
20260508031545 10 326 0.0 3.2 0.00 0.76 0.76 53 1006.6
20260508030052 10 246 0.0 3.2 0.00 0.76 0.76 53 1006.6
20260508024545 11 355 0.0 4.8 0.00 0.76 0.76 53 1006.6
20260508023043 11 286 0.0 3.2 0.00 0.76 0.76 52 1006.6
20260508021543 11 288 0.0 4.8 0.00 0.76 0.76 51 1006.7
20260508020043 11 277 0.0 1.6 0.00 0.76 0.76 49 1006.7
20260508014542 12 324 0.0 9.7 0.00 0.76 0.76 47 1006.6
20260508013041 12 311 0.0 1.6 0.00 0.76 0.76 46 1006.3
20260508011541 12 254 0.0 11.3 0.00 0.76 0.76 46 1006.1
20260508010041 12 265 0.0 3.2 0.00 0.76 0.76 45 1006.0
20260508004547 12 311 0.0 8.0 0.00 0.76 0.76 44 1005.6
20260508003046 12 263 3.2 11.3 0.00 0.76 0.76 44 1005.2
20260508001541 13 303 0.0 9.7 0.00 0.76 0.76 44 1005.1
20260508000038 13 304 0.0 6.4 0.00 0.76 0.76 42 1004.9
20260507234548 14 360 0.0 6.4 0.00 0.84 0.76 42 1004.8
20260507233044 15 284 1.6 16.1 0.00 0.84 0.76 41 1004.8
20260507231538 15 314 1.6 20.9 0.00 0.84 0.76 38 1004.6
20260507230037 15 261 1.6 16.1 0.00 0.84 0.76 39 1004.5
20260507224537 16 267 0.0 6.4 0.00 0.89 0.76 41 1004.2
20260507223046 16 254 1.6 6.4 0.00 0.89 0.76 41 1004.1
20260507221536 16 37 1.6 12.9 0.00 0.89 0.76 37 1004.1
20260507220039 16 337 1.6 12.9 0.00 0.89 0.76 39 1004.1
20260507214535 16 277 0.0 8.0 0.00 0.89 0.76 37 1003.8
20260507213035 17 32 0.0 16.1 0.00 0.89 0.76 37 1003.8
20260507211541 17 24 1.6 8.0 0.00 0.89 0.76 36 1003.8
20260507210041 17 350 0.0 12.9 0.00 0.89 0.76 38 1003.7
20260507204536 17 355 3.2 16.1 0.00 0.91 0.76 42 1003.6
20260507203030 17 321 0.0 12.9 0.00 0.91 0.76 33 1003.7
20260507201529 18 25 0.0 20.9 0.00 0.91 0.76 41 1003.6
20260507200031 18 315 4.8 19.3 0.00 0.91 0.76 37 1003.7
20260507194535 18 330 3.2 17.7 0.00 0.91 0.76 33 1003.7
20260507193025 18 82 1.6 16.1 0.00 0.91 0.76 34 1003.9
20260507191524 18 237 4.8 16.1 0.00 0.91 0.76 38 1004.1
20260507190036 18 269 1.6 12.9 0.00 0.91 0.76 41 1004.2
20260507184527 18 242 1.6 9.7 0.00 0.91 0.76 36 1004.3
20260507183019 18 355 3.2 12.9 0.00 0.91 0.76 40 1004.5